Location: Coupvray
(48.8929°N, 2.7967°E)
Time: 00:35:16
(UTC+00:00)

Daily predictions for brighter satellites

Satellite Brightness Start Highest point End
(mag) Time Altitude Azimuth Time Altitude Azimuth Time Altitude Azimuth
CZ-4 R/B 4.1 00:03:19 10° NNE 00:08:01 58° ESE 00:09:37 38° SSE
Landsat 4 3.6 00:06:10 10° NNE 00:10:00 85° ESE 00:10:43 57° S
Cosmos 1269 Rocket 4.4 00:07:29 27° SW 00:10:16 59° WNW 00:15:30 10° NNE
Cosmos 1441 Rocket 3.2 00:10:43 55° S 00:11:33 87° E 00:15:31 10° NNE
Lacrosse 5 1.8 00:10:40 38° SSW 00:12:34 67° SE 00:17:37 10° ENE
SL-16 R/B 3.9 00:12:35 10° ESE 00:18:07 35° ENE 00:23:40 10° N
BREEZE-M DEB (TANK) 3.9 00:09:23 10° WSW 00:19:33 54° S 00:23:14 10° E
Meteor 1-4 Rocket 2.9 00:16:53 10° N 00:20:33 58° ENE 00:21:27 43° SE
CZ-4C R/B 4.0 00:17:45 10° WNW 00:23:52 28° WSW 00:26:33 23° SW
Cosmos 1607 4.1 00:20:03 21° SW 00:24:22 70° NW 00:30:44 10° NE
Cosmos 1943 4.3 00:19:53 14° WSW 00:24:26 39° NW 00:29:44 10° NNE
Cosmos 1933 Rocket 4.4 00:23:25 30° SE 00:24:51 40° E 00:28:55 10° NNE
Cosmos 1666 Rocket 3.6 00:23:50 43° SSW 00:25:10 69° W 00:29:33 10° N
Iridium 4 Rocket 3.8 00:24:13 32° SSE 00:26:50 69° E 00:32:08 10° N
Cosmos 1697 Rocket 4.5 00:26:14 10° NNW 00:31:09 30° NE 00:36:02 10° ESE
NOSS 2-1 (C) 4.3 00:26:37 10° NW 00:31:35 84° NE 00:38:37 10° SE
Helios 1B rocket 2.4 00:27:45 10° NNE 00:31:54 79° ESE 00:33:01 47° S
USA 267 3.7 00:32:12 30° S 00:34:27 39° SW 00:40:31 10° WNW
Cosmos 1703 Rocket 4.5 00:31:26 10° N 00:35:44 43° ENE 00:38:05 23° SE
NOSS 2-1 (D) 4.3 00:31:20 10° NW 00:36:23 89° ENE 00:43:30 10° SE
Helios 1A 4.3 00:38:50 24° WSW 00:39:30 25° W 00:42:58 10° NW
SeaSat 1 4.4 00:39:36 10° ENE 00:42:54 18° ESE 00:45:02 14° SE
Cosmos 2082 Rocket 4.5 00:41:57 10° ESE 00:44:13 12° E 00:46:30 10° ENE
SL-4 R/B 3.9 00:43:45 10° WNW 00:45:04 13° NW 00:46:22 10° NNW
CZ-2D R/B 3.4 00:41:20 10° NNE 00:46:03 30° E 00:49:08 18° SE
Cosmos 1833 Rocket 4.4 00:44:54 15° SE 00:47:44 22° E 00:51:54 10° NE
Cosmos 2100 Rocket 4.4 00:45:06 24° SSE 00:48:46 55° E 00:54:48 10° NNE
Meteor 1-25 Rocket 4.2 00:47:42 32° S 00:50:23 81° E 00:55:59 10° NNE
Cosmos 1184 Rocket 2.9 00:49:58 52° SE 00:50:24 58° E 00:53:37 10° NNE
Cosmos 1656 4.1 00:45:59 10° NNW 00:51:22 60° ENE 00:56:32 11° SE
Cosmos 1238 Rocket 3.4 00:50:05 34° SSW 00:52:21 71° W 00:56:50 10° N
COSMOS 2406 4.3 00:49:39 23° SSE 00:52:24 35° ESE 00:57:35 10° NE
Cosmos 405 Rocket 3.5 00:52:44 31° SE 00:53:55 41° E 00:57:29 10° NNE
Cosmos 1459 Rocket 4.3 00:52:48 24° SSE 00:56:24 57° E 01:02:26 10° NNE
Cosmos 407 Rocket 4.5 00:55:13 23° SSE 00:57:50 37° ESE 01:02:45 10° NE
Meteor 1-29 2.9 00:56:20 10° N 00:59:44 77° WNW 01:00:26 53° SSW
Meteor 1-20 Rocket 4.2 00:58:23 32° SSW 01:01:08 83° W 01:06:52 10° N
SL-24 DEB 4.2 00:56:27 10° N 01:01:13 87° E 01:03:20 34° S
BREEZE-M DEB (TANK) 4.4 00:57:25 10° W 01:02:27 87° N 01:26:10 10° E
Cosmos 724 4.2 00:59:22 27° SW 01:02:37 83° NW 01:08:30 10° NE
Cosmos 1802 Rocket 4.5 01:03:01 22° SSE 01:07:10 58° E 01:13:28 10° NNE
Meteor 1-18 Rocket 4.2 01:03:39 10° NNW 01:09:30 80° W 01:12:51 26° S
CZ-4C R/B 3.6 01:11:32 25° SE 01:13:35 61° ENE 01:17:11 10° N
Cosmos 1515 3.6 01:10:28 10° N 01:14:18 88° ENE 01:15:49 36° S
GRACE-FO 1 4.5 01:12:17 10° N 01:15:56 80° W 01:17:02 43° SSW
GRACE-FO 2 4.5 01:12:39 10° N 01:16:19 79° W 01:17:25 42° SSW
Okean 1-7 3.0 01:13:15 10° NNW 01:17:41 82° W 01:19:46 31° S
Cosmos 1470 Rocket 4.3 01:16:51 28° SW 01:18:43 43° WNW 01:23:02 10° N
Meteor 1-19 Rocket 4.2 01:18:17 10° NNW 01:23:54 69° W 01:27:07 25° S
ADEOS II 3.7 01:19:49 10° NE 01:24:15 27° E 01:28:37 10° SSE
NPP 4.1 01:20:04 10° NNE 01:25:22 54° E 01:28:51 21° S
Resurs 1-4 Rocket 2.3 01:23:45 10° NNE 01:29:05 68° ESE 01:32:21 24° S
ISS -3.1 01:27:13 10° WNW 01:30:33 58° N 01:33:52 10° E
Cosmos 1241 Rocket 4.5 01:25:13 10° NW 01:31:40 83° SW 01:38:12 10° SSE
AQUA 4.4 01:28:39 10° NNE 01:33:18 50° E 01:36:23 20° SSE
UNK 3.7 01:33:05 24° S 01:35:53 77° WSW 01:40:33 10° NNW
Cosmos 2251 Rocket 4.4 01:32:39 19° WSW 01:35:57 40° WNW 01:40:54 10° NNE
Abrixas rocket 1.7 01:35:13 31° W 01:36:25 74° S 01:39:18 10° ESE
Tsikada Rocket 4.3 01:32:14 10° N 01:38:40 69° ENE 01:45:03 10° SSE
ATLAS 5 CENTAUR R/B 3.1 01:35:39 10° NW 01:41:00 52° NE 01:47:14 10° ESE
Gbstr 26 Del rocket 2.9 01:39:05 10° WNW 01:43:08 89° NNE 01:47:56 10° ESE
USA 215 4.3 01:37:20 10° ENE 01:43:31 46° N 01:49:41 10° WNW
Cosmos 2061 Rocket 4.0 01:41:58 21° S 01:46:28 90° E 01:52:48 10° N
Cosmos 2369 3.8 01:40:49 10° NNW 01:46:35 82° ENE 01:52:20 10° SSE
Cosmos 2173 Rocket 4.2 01:43:03 23° SSW 01:47:11 65° WNW 01:53:28 10° N
Cosmos 1980 Rocket 3.0 01:41:43 10° NNW 01:47:20 54° NE 01:52:53 10° SE
SL-8 R/B 3.7 01:46:36 22° SW 01:49:38 62° SSE 01:54:23 10° E
Lacrosse 5 2.9 01:50:55 10° W 01:55:47 44° NNW 02:00:40 10° NE
Okean 3 3.4 01:51:40 10° NNW 01:55:52 79° W 01:58:48 19° S
Cosmos 2016 Rocket 4.0 01:53:42 20° SSW 01:58:05 76° W 02:04:21 10° N
Meteor 1-5 Rocket 4.3 01:55:49 20° S 01:59:56 88° W 02:05:51 10° NNE
BREEZE-M DEB (TANK) 3.4 01:58:56 12° W 02:01:17 41° SSW 02:08:28 10° SE
SL-16 R/B 2.8 01:57:01 18° S 02:01:31 51° W 02:07:38 10° NNW
Meteor 2-4 Rocket 4.1 01:58:22 10° NNW 02:04:09 54° W 02:08:32 17° SSW
Cosmos 1536 3.2 02:02:53 17° S 02:05:53 62° E 02:09:54 10° NNE
Cosmos 1864 Rocket 4.5 02:02:21 18° SSW 02:06:59 77° W 02:13:09 10° N
Cosmos 2278 3.8 02:01:17 10° NNW 02:07:03 81° ENE 02:12:46 10° SSE
Cosmos 1869 Rocket 4.0 02:04:44 22° SW 02:07:12 46° WNW 02:11:25 10° N
Meteor 1-11 Rocket 3.8 02:04:11 16° S 02:08:40 77° E 02:14:12 10° NNE
SL-16 R/B 4.3 02:04:27 10° NNW 02:09:26 30° NE 02:14:22 10° ESE
Cosmos 1190 Rocket 4.1 02:06:38 20° SSW 02:10:15 72° WNW 02:15:32 10° NNE
H-2A R/B 4.4 02:07:28 10° ESE 02:11:02 25° ENE 02:14:32 10° N
Cosmos 1437 Rocket 3.6 02:07:45 10° NNW 02:11:25 34° W 02:13:22 21° SW
Cosmos 921 Rocket 3.0 02:07:35 10° NNW 02:12:02 90° WSW 02:16:21 10° SSE
Cosmos 1954 Rocket 4.1 02:08:19 18° SSW 02:12:17 75° ESE 02:17:37 10° NNE
Cosmos 1697 Rocket 2.7 02:09:58 10° NW 02:15:30 59° WSW 02:20:59 10° S
Cosmos 2221 Rocket 3.7 02:11:39 10° NNW 02:16:01 59° W 02:19:26 16° S
SeaSat 1 2.5 02:15:59 10° NNE 02:20:56 79° WNW 02:24:48 17° SW
Cosmos 1378 Rocket 4.1 02:17:49 10° N 02:22:12 60° ENE 02:26:34 10° SSE
CZ-4B R/B 3.5 02:20:09 10° N 02:25:13 68° WNW 02:29:11 16° SSW
IRS-1D 3.4 02:20:19 10° NNE 02:25:18 83° WNW 02:29:30 14° SSW
CZ-2D R/B 2.7 02:21:11 10° N 02:26:15 45° WNW 02:30:27 15° SW
Cosmos 2082 Rocket 2.4 02:22:31 15° SSW 02:27:18 74° ESE 02:33:01 10° NNE
Cosmos 1763 Rocket 4.0 02:23:49 10° NNW 02:29:04 66° ENE 02:34:20 10° SSE
COBE Rocket 3.9 02:24:21 10° S 02:29:21 72° W 02:34:15 10° NNW
Aureole 1 Rocket 3.7 02:26:02 17° SW 02:29:43 67° WNW 02:35:58 10° NNE
Cosmos 1833 Rocket 2.8 02:26:35 16° SW 02:31:07 69° WNW 02:36:45 10° NNE
Meteor 1-23 Rocket 4.3 02:27:04 10° NNW 02:32:49 84° W 02:38:36 10° S
Cosmos 1900 4.4 02:29:33 16° SSW 02:33:31 74° SE 02:38:31 10° NE
ERS-2 3.9 02:31:53 10° SE 02:35:11 33° ENE 02:38:30 10° N
Meteor 1-28 Rocket 3.3 02:32:40 10° SSE 02:36:22 77° ENE 02:40:07 10° N
Cosmos 1140 Rocket 4.0 02:32:12 15° SW 02:36:23 48° WNW 02:41:29 10° NNE
COSMOS 2406 3.9 02:31:43 13° SW 02:36:36 47° NW 02:42:10 10° NNE
CBERS-1 4.1 02:33:19 10° N 02:38:26 67° WNW 02:43:03 13° SSW
Cosmos 407 Rocket 4.5 02:35:25 13° WSW 02:39:50 38° WNW 02:44:50 10° N
Cosmos 468 Rocket 4.1 02:34:58 10° NNW 02:40:20 90° SSE 02:45:39 10° SSE
Cosmos 2360 4.5 02:36:41 10° NW 02:42:13 49° WSW 02:47:42 10° S
CZ-2D R/B 4.4 02:39:33 10° NNE 02:43:49 48° E 02:47:57 10° S
Cosmos 2233 Rocket 4.1 02:39:40 12° SSW 02:45:27 64° WNW 02:51:42 10° N
Cosmos 1271 Rocket 3.9 02:42:06 10° N 02:45:45 43° ENE 02:49:21 10° SSE
Cosmos 1674 Rocket 3.6 02:42:56 10° NNW 02:47:14 60° W 02:51:29 10° S
Cosmos 1666 3.5 02:48:04 14° SW 02:50:58 35° WNW 02:54:27 10° N
Cosmos 2322 Rocket 3.5 02:45:32 10° NNW 02:50:58 45° NE 02:56:23 10° SE
ATLAS 5 CENTAUR R/B 3.9 02:47:13 10° WNW 02:51:12 34° SW 03:02:36 10° SSE
Cosmos 1850 Rocket 4.3 02:46:57 10° S 02:52:15 68° ESE 02:57:34 10° NNE
Cosmos 1066 Rocket 4.5 02:48:45 10° NNW 02:54:30 57° W 03:00:12 10° S
Cosmos 841 Rocket 4.1 02:51:32 10° NNW 02:56:41 61° ENE 03:01:48 10° SE
Cosmos 540 Rocket 4.2 02:51:47 10° NNW 02:56:53 58° ENE 03:01:57 10° SE
ARIANE 5 R/B 2.6 02:52:27 10° NNE 02:57:34 90° ESE 03:02:43 10° SSW
IRS-1C 4.2 02:53:09 10° N 02:58:29 72° WNW 03:03:47 10° SSW
ADEOS II 2.5 02:59:08 10° N 03:04:12 49° WNW 03:09:15 10° SW
Cosmos 1544 3.7 03:01:28 10° S 03:04:58 56° E 03:08:31 10° NNE
Cosmos 1818 3.6 03:00:12 10° NW 03:05:37 68° WSW 03:11:01 10° SSE
Cosmos 1743 2.7 03:03:03 10° SSW 03:06:52 73° WNW 03:10:42 10° N
ISS -3.6 03:04:04 10° WNW 03:07:20 49° SSW 03:10:35 10° SE
SL-08 R/B 3.7 03:02:55 10° S 03:07:29 45° W 03:12:08 10° NNW
Resurs 1-4 Rocket 3.7 03:04:26 10° N 03:08:25 22° WNW 03:12:23 10° WSW
Spot 4 Rocket 4.1 03:04:32 10° NNE 03:09:44 83° ESE 03:14:53 10° SSW
Cosmos 1741 Rocket 4.1 03:04:53 10° SSW 03:10:06 89° ESE 03:15:23 10° NNE
Cosmos 1733 Rocket 4.0 03:06:45 10° SW 03:10:37 32° WNW 03:14:32 10° N
Cosmos 1908 Rocket 3.6 03:06:52 10° SSW 03:11:20 77° W 03:15:50 10° N
Abrixas rocket 2.9 03:09:07 10° W 03:11:36 26° SSW 03:14:04 10° SSE
Nadezhda 4 Rocket 4.4 03:06:46 10° N 03:13:07 73° ENE 03:19:26 10° SSE
Landsat 5 3.4 03:10:08 10° SSE 03:14:02 82° ENE 03:17:53 10° NNW
CENTAUR R/B 4.2 03:11:35 10° SSE 03:16:29 28° ESE 03:22:04 10° NE
